Volver al catálogo

ONEWEB-0541

ActivoComunicacionesPO
NORAD 55142·PAYLOAD·🇬🇧 United Kingdom

Lanzado Jan 10, 2023 desde Cape Canaveral Space Force Station

Loading…

Próximos Pases (próximas 24 horas)

TLE

ActualizadoSource: CelesTrak SupGP

Época: Sep 14, 2026, 18:37 UTC

1 55142C 23004C   26257.77588380  .00002488  00000+0  70286-2 0  2577
2 55142  87.8971   3.2514 0001587 104.6249 355.3128 13.11415610    12

Sigue ONEWEB-0541 en tiempo real con AllMySat

Download on the App Store